Location: Tamazert
(32.6352°N, 5.2072°W)
Time: 22:07:13
(UTC+00:00)

MOS 1-B Rocket - Pass Details

Date: 22 May 2022
Orbit: 891 x 1605 km, 99.0° (Epoch: 24 June)

Event Time Altitude Azimuth Distance (km) Brightness Sun altitude
Rises 03:39:52 0° 164° (SSE) 3,664 6.8 -18.3°
Reaches altitude 10° 03:42:22 10° 164° (SSE) 2,659 6.1 -17.9°
Maximum altitude 03:48:11 86° 77° (ENE) 906 3.8 -16.9°
Drops below altitude 10° 03:53:48 10° 348° (NNW) 2,567 6.5 -16.0°
Sets 03:56:11 0° 348° (NNW) 3,529 7.3 -15.6°
